Weather History for Hof Plauen, Germany

Change the Weather History Date:

Thursday, April 17, 2014

  Actual Average Record
Temperature  
Mean Temperature 39 °F -  
Max Temperature 52 °F 49 °F 73 °F (2007)
Min Temperature 26 °F 35 °F 25 °F (2012)
Degree Days  
Heating Degree Days 26    
Moisture  
Dew Point 25 °F    
Average Humidity 56    
Maximum Humidity 92    
Minimum Humidity 22    
Precipitation  
Precipitation 0.00 in - - ()
Sea Level Pressure  
Sea Level Pressure 30.21 in    
Wind  
Wind Speed 3 mph ()    
Max Wind Speed 14 mph    
Max Gust Speed -    
Visibility 8.2 miles    
Events      
Averages and records for this station are not official NWS values.
T = Trace of Precipitation, MM = Missing Value Source: Averaged Metar Reports

Daily Weather History Graph

Daily Weather History Graph

Search for Another Location

Airport:

Trip Planner

Search our weather history database for the weather conditions in past years. The results will help you decide how hot, cold, wet, or windy it might be!

Date:

Astronomy

Apr. 17, 2014 Rise Set
Actual Time 6:15 AM CEST 8:09 PM CEST
Civil Twilight 5:40 AM CEST 8:44 PM CEST
Nautical Twilight 4:58 AM CEST 9:27 PM CEST
Astronomical Twilight 4:10 AM CEST 10:15 PM CEST
Moon 10:50 PM CEST (4/17) 7:24 AM CEST (4/17)
Length of Visible Light 15h 03m
Length of Day
13h 54m
Waning Gibbous, 95% of the Moon is Illuminated
Apr 17
Waning Gibbous
Apr 22
Last Quarter
Apr 29
New
May 7
First Quarter
May 14
Full

Hourly Weather History & Observations

Time (CEST) Temp. Windchill Dew Point Humidity Pressure Visibility Wind Dir Wind Speed Gust Speed Precip Events Conditions
12:00 AM 33 °F - 27 °F 72% 30.44 in 13 mi West 2.2 mph - -  
12:20 AM 32.0 °F - 26.6 °F 80% 30.36 in 6.2 mi Calm Calm - N/A   Unknown
12:50 AM 32.0 °F - 26.6 °F 80% 30.36 in 6.2 mi Calm Calm - N/A   Unknown
1:00 AM 31 °F - 26 °F 76% 30.45 in 12 mi South 2.2 mph - -  
1:20 AM 30.2 °F - 26.6 °F 86% 30.36 in 6.2 mi Calm Calm - N/A   Unknown
1:50 AM 30.2 °F - 24.8 °F 80% 30.36 in 6.2 mi SSW 2.3 mph - N/A   Unknown
2:00 AM 31 °F - 26 °F 76% 30.44 in 12 mi West 2.2 mph - -  
2:20 AM 32.0 °F - 26.6 °F 80% 30.36 in 6.2 mi Calm Calm - N/A   Unknown
2:50 AM 30.2 °F - 24.8 °F 80% 30.36 in 6.2 mi Calm Calm - N/A   Unknown
3:00 AM 29 °F - 26 °F 83% 30.44 in 11 mi NNE 2.2 mph - -  
3:20 AM 28.4 °F - 24.8 °F 86% 30.36 in 6.2 mi SSE 1.2 mph - N/A   Unknown
3:50 AM 28.4 °F - 24.8 °F 86% 30.33 in 6.2 mi Calm Calm - N/A   Unknown
4:00 AM 28 °F - 26 °F 88% 30.43 in 7 mi SSE 2.2 mph - -  
4:20 AM 28.4 °F - 24.8 °F 86% 30.33 in 6.2 mi Calm Calm - N/A   Unknown
4:50 AM 28.4 °F - 24.8 °F 86% 30.30 in 6.2 mi Calm Calm - N/A   Unknown
5:20 AM 28.4 °F - 24.8 °F 86% 30.30 in 6.2 mi Calm Calm - N/A   Unknown
5:50 AM 28.4 °F - 24.8 °F 86% 30.30 in 6.2 mi Calm Calm - N/A   Unknown
6:00 AM 27 °F - 25 °F 91% 30.41 in 11 mi South 2.2 mph - -   Clear
6:20 AM 28.4 °F - 24.8 °F 86% 30.30 in 6.2 mi Calm Calm - N/A   Unknown
6:50 AM 30.2 °F - 24.8 °F 80% 30.30 in - Calm Calm - N/A   Clear
7:00 AM 27 °F - 26 °F 92% 30.40 in 15 mi East 2.2 mph - -   Clear
7:20 AM 32.0 °F - 24.8 °F 75% 30.30 in - Calm Calm - N/A   Clear
7:50 AM 33.8 °F - 26.6 °F 75% 30.30 in - Calm Calm - N/A   Clear
8:00 AM 31 °F - 28 °F 84% 30.38 in 17 mi SSE 2.2 mph - -   Clear
8:20 AM 35.6 °F - 26.6 °F 70% 30.30 in - Variable 1.2 mph - N/A   Clear
8:50 AM 39.2 °F 37.0 °F 26.6 °F 61% 30.30 in - South 3.5 mph - N/A   Clear
9:00 AM 37 °F - 29 °F 64% 30.35 in 19 mi SSE 4.5 mph - -   Clear
9:20 AM 41.0 °F 38.0 °F 26.6 °F 57% 30.30 in - South 4.6 mph - N/A   Clear
9:50 AM 42.8 °F 38.0 °F 26.6 °F 53% 30.30 in - SSE 8.1 mph - N/A   Clear
10:00 AM 41 °F - 27 °F 46% 30.32 in 28 mi SSE 6.7 mph - -   Scattered Clouds
10:20 AM 44.6 °F 41.4 °F 23.0 °F 43% 30.30 in - SSE 5.8 mph - N/A   Clear
10:50 AM 44.6 °F 40.2 °F 21.2 °F 39% 30.27 in - SE 8.1 mph - N/A   Clear
11:20 AM 46.4 °F 42.9 °F 23.0 °F 40% 30.27 in - SSE 6.9 mph - N/A   Clear
11:50 AM 46.4 °F 44.3 °F 21.2 °F 37% 30.24 in - Variable 4.6 mph - N/A   Clear
12:00 PM 46 °F - 23 °F 27% 30.26 in 37 mi SSE 4.5 mph - -   Clear
12:20 PM 48.2 °F - 23.0 °F 37% 30.24 in - Variable 3.5 mph - N/A   Clear
1:00 PM 48 °F - 25 °F 27% 30.22 in 37 mi South 4.5 mph - -   Clear
1:20 PM 50.0 °F - 21.2 °F 32% 30.21 in - South 6.9 mph - N/A   Clear
1:50 PM 50.0 °F - 24.8 °F 37% 0.00 in - Variable 4.6 mph - N/A   Clear
2:00 PM 49 °F - 26 °F 27% 30.18 in 22 mi South 4.5 mph - -   Clear
2:20 PM 51.8 °F - 23.0 °F 33% 30.15 in - South 8.1 mph - N/A   Clear
2:50 PM 51.8 °F - 23.0 °F 33% 30.15 in - SW 8.1 mph - N/A   Clear
3:00 PM 50 °F - 26 °F 27% 30.14 in 25 mi SSW 4.5 mph - -  
3:20 PM 53.6 °F - 23.0 °F 30% 30.12 in - South 8.1 mph - N/A   Clear
3:50 PM 51.8 °F - 24.8 °F 35% 30.09 in - Variable 4.6 mph - N/A   Clear
4:00 PM 51 °F - 26 °F 26% 30.10 in 34 mi South 8.9 mph - -   Overcast
4:20 PM 51.8 °F - 23.0 °F 33% 30.09 in - SSW 9.2 mph - N/A   Clear
4:50 PM 51.8 °F - 23.0 °F 33% 30.06 in - SW 9.2 mph - N/A   Clear
5:20 PM 50.0 °F - 21.2 °F 32% 30.06 in - SSW 11.5 mph - N/A   Clear
5:50 PM 51.8 °F - 23.0 °F 33% 30.06 in - SSW 13.8 mph - N/A   Clear
6:00 PM 51 °F - 24 °F 22% 30.04 in 34 mi SW 8.9 mph - -   Overcast
6:20 PM 51.8 °F - 23.0 °F 33% 30.04 in - SSW 13.8 mph - N/A   Clear
6:50 PM 50.0 °F - 21.2 °F 32% 30.04 in - SSW 11.5 mph - N/A   Clear
7:00 PM 50 °F - 23 °F 22% 30.03 in 40 mi SW 6.7 mph - -   Overcast
7:20 PM 48.2 °F - 23.0 °F 37% 30.01 in - South 8.1 mph - N/A   Clear
7:50 PM 46.4 °F 43.5 °F 24.8 °F 43% 30.01 in - South 5.8 mph - N/A   Clear
8:00 PM 49 °F - 25 °F 26% 30.01 in 37 mi SSW 6.7 mph - -   Overcast
8:20 PM 44.6 °F 41.4 °F 24.8 °F 46% 30.01 in 6.2 mi South 5.8 mph - N/A   Unknown
8:50 PM 44.6 °F 42.2 °F 24.8 °F 46% 30.01 in 6.2 mi SW 4.6 mph - N/A   Unknown
9:00 PM 46 °F - 27 °F 35% 30.01 in 31 mi South 4.5 mph - -   Overcast
9:20 PM 42.8 °F - 24.8 °F 49% 29.98 in 6.2 mi South 2.3 mph - N/A   Unknown
9:50 PM 39.2 °F - 26.6 °F 61% 29.98 in 6.2 mi Variable 2.3 mph - N/A   Unknown
10:00 PM 43 °F - 28 °F 44% 30.00 in 25 mi South 6.7 mph - -  
10:20 PM 41.0 °F 39.0 °F 26.6 °F 57% 29.95 in 6.2 mi South 3.5 mph - N/A   Unknown
10:50 PM 39.2 °F 35.9 °F 26.6 °F 61% 29.95 in 6.2 mi SW 4.6 mph - N/A   Unknown
11:20 PM 39.2 °F 35.9 °F 26.6 °F 61% 29.95 in 6.2 mi SSW 4.6 mph - N/A   Unknown
11:50 PM 39.2 °F 35.0 °F 24.8 °F 56% 29.92 in 6.2 mi SSW 5.8 mph - N/A   Unknown